Stations météo

réclame
Mon MeteoGroup
Elphin, Grande-Bretagne (99153): Température de l'air & dewpoint: 17.07.2019 23:00:00 - 23.07.2019 23:00:00 (BST)Elphin, Grande-Bretagne (99153): Quantités de précipitations: 17.07.2019 23:00:00 - 23.07.2019 23:00:00 (BST)
Date & Time tt [°C] td [°C] rr [mm]
23.07.2019 23:00:00 15,2 14,1 0,0
23.07.2019 22:00:00 17,9 14,4 0,0
23.07.2019 21:00:00 20,4 15,8 0,0
23.07.2019 20:00:00 - - -
23.07.2019 19:00:00 - - -
23.07.2019 18:00:00 24,2 17,0 0,0
23.07.2019 17:00:00 23,7 17,3 0,0
23.07.2019 16:00:00 26,1 16,9 0,0
23.07.2019 15:00:00 24,7 18,1 0,0
23.07.2019 14:00:00 24,4 18,5 0,0
23.07.2019 13:00:00 23,2 17,9 0,0
23.07.2019 12:00:00 21,5 17,6 0,0
23.07.2019 11:00:00 21,0 16,5 0,0
23.07.2019 10:00:00 21,9 16,5 0,0
23.07.2019 09:00:00 21,1 16,7 0,0
23.07.2019 08:00:00 20,2 17,6 0,0
23.07.2019 07:00:00 17,9 16,7 0,0
23.07.2019 06:00:00 17,4 16,6 0,0
23.07.2019 05:00:00 18,4 16,4 0,0
23.07.2019 04:00:00 18,3 16,3 0,0
23.07.2019 03:00:00 18,2 16,7 0,0
23.07.2019 02:00:00 17,7 17,2 1,4
23.07.2019 01:00:00 17,5 17,1 3,4
23.07.2019 00:00:00 17,2 16,8 6,6
22.07.2019 23:00:00 17,3 16,8 3,6
22.07.2019 22:00:00 16,7 16,3 3,6
22.07.2019 21:00:00 16,8 16,2 3,8
22.07.2019 20:00:00 16,8 15,9 0,4
22.07.2019 19:00:00 16,6 15,7 0,6
22.07.2019 18:00:00 17,1 15,9 0,2
22.07.2019 17:00:00 16,9 15,8 0,0
22.07.2019 16:00:00 16,6 15,8 0,0
22.07.2019 15:00:00 16,7 15,8 0,4
22.07.2019 14:00:00 16,7 15,8 0,6
22.07.2019 13:00:00 15,3 14,8 1,2
22.07.2019 12:00:00 15,2 14,6 1,4
22.07.2019 11:00:00 14,9 14,2 2,2
22.07.2019 10:00:00 15,4 12,7 0,0
22.07.2019 09:00:00 15,4 13,3 0,0
22.07.2019 08:00:00 14,7 13,7 0,2
22.07.2019 07:00:00 14,2 13,8 0,2
22.07.2019 06:00:00 14,1 13,6 0,8
22.07.2019 05:00:00 14,5 13,8 0,4
22.07.2019 04:00:00 15,1 14,4 0,2
22.07.2019 03:00:00 17,1 14,2 0,0
22.07.2019 02:00:00 17,3 14,0 0,0
22.07.2019 01:00:00 16,1 14,0 0,0
22.07.2019 00:00:00 15,8 13,2 0,0
21.07.2019 23:00:00 16,4 13,1 0,0
21.07.2019 22:00:00 14,8 13,4 0,0
21.07.2019 21:00:00 15,1 13,5 0,0
21.07.2019 20:00:00 14,3 13,4 0,8
21.07.2019 19:00:00 14,8 13,0 0,0
21.07.2019 18:00:00 14,7 13,2 0,4
21.07.2019 17:00:00 16,3 11,7 0,0
21.07.2019 16:00:00 17,8 11,0 0,0
21.07.2019 15:00:00 17,5 11,6 0,0
21.07.2019 14:00:00 18,1 13,2 0,0
21.07.2019 13:00:00 17,1 12,2 0,0
21.07.2019 12:00:00 17,7 12,6 0,0
21.07.2019 11:00:00 16,2 11,3 0,0
21.07.2019 10:00:00 16,3 11,9 0,0
21.07.2019 09:00:00 14,8 11,0 0,0
21.07.2019 08:00:00 13,9 11,1 0,0
21.07.2019 07:00:00 13,3 11,2 0,0
21.07.2019 06:00:00 12,8 11,3 0,0
21.07.2019 05:00:00 12,8 11,3 0,0
21.07.2019 04:00:00 12,5 11,8 0,6
21.07.2019 03:00:00 12,7 11,4 0,0
21.07.2019 02:00:00 12,8 11,6 0,0
21.07.2019 01:00:00 12,4 11,4 0,4
21.07.2019 00:00:00 12,6 11,2 0,0
20.07.2019 23:00:00 12,4 9,9 0,0
20.07.2019 22:00:00 13,2 10,5 0,0
20.07.2019 21:00:00 13,6 10,9 0,0
20.07.2019 20:00:00 14,3 11,1 0,0
20.07.2019 19:00:00 14,9 11,5 0,0
20.07.2019 18:00:00 15,6 11,9 0,0
20.07.2019 17:00:00 16,8 12,2 0,0
20.07.2019 16:00:00 14,9 12,4 0,0
20.07.2019 15:00:00 15,7 12,2 0,0
20.07.2019 14:00:00 13,6 12,7 0,0
20.07.2019 13:00:00 13,1 12,8 0,6
20.07.2019 12:00:00 13,4 13,2 0,2
20.07.2019 11:00:00 13,5 13,2 0,4
20.07.2019 10:00:00 13,6 13,2 0,0
20.07.2019 09:00:00 13,6 12,8 0,0
20.07.2019 08:00:00 14,8 13,5 0,0
20.07.2019 07:00:00 13,8 13,3 0,0
20.07.2019 06:00:00 13,3 12,8 0,0
20.07.2019 05:00:00 13,0 12,5 0,0
20.07.2019 04:00:00 12,8 12,2 0,0
20.07.2019 03:00:00 12,9 12,1 0,0
20.07.2019 02:00:00 13,0 12,1 0,0
20.07.2019 01:00:00 13,0 11,8 0,0
20.07.2019 00:00:00 12,2 11,5 0,0
19.07.2019 23:00:00 12,6 11,8 0,0
19.07.2019 22:00:00 13,0 12,3 0,2
19.07.2019 21:00:00 15,6 10,4 0,0
19.07.2019 20:00:00 17,7 10,5 0,0
19.07.2019 19:00:00 17,1 10,8 0,0
19.07.2019 18:00:00 17,0 10,7 0,0
19.07.2019 17:00:00 16,4 11,0 0,0
19.07.2019 16:00:00 16,1 10,1 0,0
19.07.2019 15:00:00 16,5 10,6 0,0
19.07.2019 14:00:00 16,8 10,0 0,0
19.07.2019 13:00:00 16,4 10,7 0,0
19.07.2019 12:00:00 16,1 9,7 0,0
19.07.2019 11:00:00 15,1 10,2 0,0
19.07.2019 10:00:00 14,9 11,1 0,0
19.07.2019 09:00:00 14,6 10,8 0,0
19.07.2019 08:00:00 13,7 11,8 0,0
19.07.2019 07:00:00 12,6 11,1 0,2
19.07.2019 06:00:00 12,7 10,5 0,0
19.07.2019 05:00:00 12,6 10,4 0,0
19.07.2019 04:00:00 12,7 10,5 0,0
19.07.2019 03:00:00 12,7 10,6 0,0
19.07.2019 02:00:00 12,9 10,5 0,0
19.07.2019 01:00:00 12,6 10,8 0,0
19.07.2019 00:00:00 12,7 11,2 0,0
18.07.2019 23:00:00 12,4 11,3 0,6
18.07.2019 22:00:00 13,2 10,6 0,0
18.07.2019 21:00:00 13,4 11,4 0,0
18.07.2019 20:00:00 14,2 11,7 0,0
18.07.2019 19:00:00 14,1 11,6 0,0
18.07.2019 18:00:00 14,5 13,1 0,6
18.07.2019 17:00:00 14,6 12,4 0,6
18.07.2019 16:00:00 14,2 11,9 0,0
18.07.2019 15:00:00 15,9 11,8 0,0
18.07.2019 14:00:00 17,2 12,5 0,0
18.07.2019 13:00:00 15,5 10,8 0,0
18.07.2019 12:00:00 14,9 10,5 0,0
18.07.2019 11:00:00 15,6 11,6 0,0
18.07.2019 10:00:00 13,9 11,8 0,0
18.07.2019 09:00:00 12,9 11,8 0,6
18.07.2019 08:00:00 12,9 11,7 0,2
18.07.2019 07:00:00 12,5 11,3 0,0
18.07.2019 06:00:00 12,3 10,4 0,0
18.07.2019 05:00:00 11,7 10,2 0,0
18.07.2019 04:00:00 12,2 10,9 0,0
18.07.2019 03:00:00 11,7 11,2 0,2
18.07.2019 02:00:00 11,6 11,0 0,0
18.07.2019 01:00:00 11,5 10,8 0,0
18.07.2019 00:00:00 12,2 11,3 0,4
17.07.2019 23:00:00 12,2 10,7 0,0

tt = Température de l'air
td = dewpoint
rr = Quantités de précipitations

stations d'obs. à proximité